This is the latest recevied weather packets stored in our database for station/object KJ4EBE. If no packets are shown the sender has not sent any weather packets the latest 10 day(s).
| Time | Temp. | Humidity | Pressure | Rain* | Wind** | Luminosity | Snow |
|---|---|---|---|---|---|---|---|
| 1777801596 | 14.44° C | 73% | 1020.8 hPa | 0 mm | - | 0 W/m² | - |
| 1777801293 | 14.44° C | 73% | 1020.6 hPa | 0 mm | - | 0 W/m² | - |
| 1777800989 | 14.44° C | 72% | 1020.5 hPa | 0 mm | - | 0 W/m² | - |
| 1777800686 | 14.44° C | 73% | 1020.5 hPa | 0 mm | - | 0 W/m² | - |
| 1777800382 | 14.44° C | 74% | 1020.6 hPa | 0 mm | - | 0 W/m² | - |
| 1777800079 | 13.89° C | 75% | 1020.5 hPa | 0 mm | - | 0 W/m² | - |
| 1777799774 | 13.89° C | 75% | 1020.6 hPa | 0 mm | - | 0 W/m² | - |
| 1777799472 | 13.89° C | 76% | 1020.5 hPa | 0 mm | - | 0 W/m² | - |
| 1777799167 | 13.89° C | 77% | 1020.5 hPa | 0 mm | - | 0 W/m² | - |
| 1777798863 | 13.33° C | 78% | 1020.9 hPa | 0 mm | - | 0 W/m² | - |
| 1777798559 | 13.33° C | 79% | 1020.6 hPa | 0 mm | - | 0 W/m² | - |
| 1777798256 | 13.33° C | 80% | 1020.4 hPa | 0 mm | - | 0 W/m² | - |
| 1777797953 | 13.33° C | 79% | 1020.4 hPa | 0 mm | - | 0 W/m² | - |
| 1777797651 | 13.33° C | 79% | 1020.3 hPa | 0 mm | - | 0 W/m² | - |
| 1777797348 | 13.33° C | 79% | 1020.2 hPa | 0 mm | - | 0 W/m² | - |
| 1777797045 | 13.33° C | 79% | 1020.4 hPa | 0 mm | - | 0 W/m² | - |
| 1777796742 | 12.78° C | 81% | 1020.5 hPa | 0 mm | - | 0 W/m² | - |
| 1777796439 | 12.78° C | 82% | 1020.2 hPa | 0 mm | - | 0 W/m² | - |
| 1777796133 | 12.78° C | 83% | 1020.3 hPa | 0 mm | - | 0 W/m² | - |
| 1777795831 | 12.22° C | 85% | 1020.4 hPa | 0 mm | - | 0 W/m² | - |
| 1777795526 | 12.22° C | 84% | 1020.5 hPa | 0 mm | - | 0 W/m² | - |
| 1777795223 | 12.22° C | 85% | 1020.4 hPa | 0 mm | - | 0 W/m² | - |
| 1777794920 | 12.78° C | 84% | 1020.3 hPa | 0 mm | - | 0 W/m² | - |
| 1777794617 | 12.78° C | 84% | 1020.5 hPa | 0 mm | - | 0 W/m² | - |
| 1777794312 | 12.78° C | 83% | 1020.6 hPa | 0 mm | - | 0 W/m² | - |
* Rain latest hour (hover to see other rain measurements)
** Current wind speed in m/s (hover to see current wind gust speed)